EHI
0 0 1 2 2 2 1 0 0 0 0 0 0 1 2 3 5 6 11 29 48 51 45 43 40 33 26 21 14 10 7 4 2 1 3 6 7 9 10 12 13 12 12 11 10 10 9 9 11
0 0 1 1 1 1 0 0 0 0 0 0 1 2 3 4 7 8 16 32 47 49 44 42 40 32 25 20 13 10 6 3 1 0 2 4 6 7 10 11 11 11 11 10 10 10 9 9 9
0 0 1 0 0 0 0 0 0 0 0 0 1 2 4 5 7 11 21 34 43 46 46 46 42 34 26 20 14 10 6 3 1 0 1 3 4 6 8 8 8 9 9 9 8 8 8 8 8
0 0 0 0 0 0 0 0 0 0 0 0 2 4 6 6 8 13 21 32 40 44 47 49 46 37 28 21 16 12 7 4 3 2 2 3 3 5 7 7 6 6 6 6 7 6 7 7 6
0 0 0 0 0 0 0 0 0 0 0 1 3 6 8 8 10 14 19 27 35 41 46 49 46 38 30 24 18 14 10 8 7 5 3 2 2 4 5 5 4 3 3 5 6 7 6 5 4
0 0 0 0 0 0 0 0 0 1 1 2 3 7 11 11 11 15 19 23 31 39 44 45 41 36 31 27 21 17 14 12 11 8 5 3 2 3 3 2 1 1 2 4 6 6 5 4 3
0 0 0 0 0 0 0 0 0 1 2 2 3 8 15 16 14 15 19 23 28 37 42 38 33 31 29 26 23 20 18 17 14 10 6 5 4 3 2 1 1 2 2 3 5 6 5 3 2
0 0 0 0 0 0 0 0 0 1 2 2 3 9 19 22 17 16 21 25 29 36 37 31 26 24 22 21 22 21 20 20 17 12 7 5 4 4 3 1 1 3 3 3 4 5 4 2 1
0 0 0 0 0 0 0 0 0 1 2 3 4 10 21 24 20 19 24 28 31 34 32 27 24 20 17 17 22 22 21 20 17 13 10 6 5 6 5 4 4 4 4 4 5 5 3 1 0
0 0 0 0 0 0 0 0 0 1 2 2 6 14 22 24 22 21 26 32 33 31 28 26 25 22 19 21 26 25 23 21 17 14 12 9 8 7 7 8 8 6 5 5 6 6 5 2 1
0 0 0 0 0 0 0 0 0 1 1 1 6 15 22 23 22 22 27 35 35 31 28 28 28 28 27 29 31 28 26 26 21 16 14 11 8 7 7 8 8 6 4 5 6 6 5 4 3
0 0 0 0 0 0 0 0 1 1 1 2 6 13 19 20 19 22 29 35 37 35 33 32 34 35 36 36 34 30 28 28 25 19 15 11 7 6 6 6 5 4 3 3 4 4 5 5 4
0 0 0 0 0 0 0 1 2 1 2 3 6 11 15 16 18 24 33 39 40 39 40 40 42 46 46 41 37 31 28 26 23 18 14 11 9 8 8 6 4 3 3 4 5 5 6 6 5
0 0 0 0 0 0 1 2 3 3 4 4 6 9 11 13 19 29 40 47 45 44 48 50 50 51 50 43 36 30 26 23 19 17 15 11 11 11 9 6 4 4 6 7 8 7 7 7 6
0 0 0 0 0 0 1 3 4 4 4 5 6 8 10 14 22 32 44 51 52 53 54 53 50 51 50 43 34 27 23 20 18 19 19 15 13 12 10 7 6 6 8 11 10 8 6 6 6
0 0 0 0 0 0 1 2 4 4 4 6 7 9 12 18 24 33 43 52 56 57 55 50 48 49 48 42 34 28 24 22 21 20 20 19 15 14 12 9 8 9 10 11 10 7 6 6 6
0 0 0 1 1 0 0 1 2 3 5 7 8 10 14 20 26 35 45 53 57 55 51 49 50 50 46 40 35 31 28 25 23 19 19 19 16 14 12 11 11 11 11 10 8 8 9 9 7
0 0 0 0 1 1 1 1 1 3 5 7 7 9 14 20 30 41 49 54 58 55 50 50 52 51 45 38 35 33 29 25 21 19 19 19 15 12 11 11 13 12 10 8 7 10 11 9 7
0 0 0 0 0 2 2 2 1 2 4 5 5 8 14 24 36 46 51 55 57 54 50 48 49 50 45 39 35 34 29 24 19 19 20 17 13 11 10 11 13 12 10 8 8 10 9 7 5
0 0 0 0 1 3 4 2 1 1 2 2 3 7 14 27 41 48 51 54 54 50 46 44 46 47 44 39 36 34 30 25 22 21 20 15 12 11 10 11 13 13 11 9 8 9 6 3 1
0 0 0 0 1 3 4 3 2 3 2 2 2 5 13 27 40 47 49 50 48 43 40 41 46 47 44 39 33 31 29 26 26 25 21 15 11 10 10 10 12 13 11 9 8 8 5 2 1
0 0 0 0 0 1 2 2 2 3 2 1 1 4 11 24 36 43 44 44 41 36 35 40 47 48 44 36 30 27 25 24 25 24 20 15 10 8 8 9 10 11 10 7 7 8 7 4 3
0 0 0 0 0 0 1 1 1 2 2 1 2 6 12 20 30 37 38 38 35 31 32 38 44 44 39 32 29 27 23 20 20 19 17 14 11 8 7 8 10 11 9 7 7 8 8 6 5
0 0 0 0 0 0 0 0 1 2 3 4 5 10 15 20 26 31 32 32 30 28 30 35 37 36 31 26 26 28 24 20 19 18 16 15 12 10 8 9 11 11 9 7 7 8 8 7 6
0 0 0 0 0 0 0 1 2 4 5 7 10 15 19 22 25 27 28 27 26 26 29 33 32 29 25 21 22 26 25 22 20 19 17 16 14 12 11 11 11 10 7 7 7 8 8 7 6
0 0 0 0 0 0 1 2 5 6 7 10 14 18 20 21 23 25 26 26 25 25 29 31 28 25 21 19 21 23 24 21 20 19 18 17 14 13 14 14 12 9 7 6 7 8 8 7 7
0 0 0 0 0 0 1 3 7 9 10 12 15 17 18 20 22 25 27 27 26 26 28 28 26 25 22 20 20 21 21 20 18 18 19 18 16 15 15 15 12 9 7 6 7 8 8 8 8
0 0 0 0 0 0 1 2 6 8 9 10 11 13 15 19 23 25 27 26 26 26 26 25 25 25 25 22 19 19 19 19 18 18 18 18 17 17 16 14 11 9 7 7 7 7 7 7 7
0 0 0 0 0 0 1 2 5 6 5 5 6 9 14 18 21 24 25 25 24 24 22 21 21 22 23 22 20 18 18 18 18 17 16 16 16 17 15 13 11 9 7 6 6 6 6 6 6
0 0 0 0 0 1 2 3 6 5 2 2 4 8 13 17 18 21 24 24 23 22 19 18 19 19 19 20 20 19 18 17 16 16 14 14 15 15 14 12 9 8 7 6 5 5 5 4 4
Wind_Speed
9 12 11 8 7 4 7 2 6 8 8 8 7 7 10 11 9 7 7 12 15 15 14 13 12 11 10 9 8 7 7 7 7 7 7 7 7 7 7 7 8 8 7 7 6 6 6 6 6
11 14 10 7 5 4 4 3 6 9 8 6 6 7 9 11 10 9 9 11 14 14 12 12 12 11 10 9 8 7 7 6 6 7 7 6 6 7 7 7 7 7 7 6 6 6 5 5 5
12 17 9 6 6 4 2 4 5 8 5 4 5 7 8 8 10 8 9 11 13 13 13 13 12 11 10 9 8 7 7 6 6 6 6 6 6 6 6 6 6 6 6 6 6 5 5 4 4
10 9 7 6 6 3 2 1 4 6 4 4 4 7 9 9 7 10 10 10 13 13 13 13 12 11 9 8 7 7 7 6 6 5 5 5 5 5 5 5 5 5 5 5 5 5 4 3 2
11 8 8 7 6 3 2 2 4 3 4 5 5 8 9 10 10 12 10 10 11 12 13 13 12 11 9 8 7 7 6 6 6 5 5 5 5 5 5 4 5 5 5 5 5 4 4 3 2
8 8 8 7 6 3 1 1 2 2 3 4 4 6 8 8 9 9 10 10 10 12 14 13 13 11 10 9 8 7 7 6 6 6 5 5 5 5 5 5 4 4 4 4 4 4 4 3 3
10 9 9 8 6 3 2 1 1 2 4 4 3 4 7 9 7 8 8 9 10 12 13 12 11 10 10 9 8 8 7 7 7 6 6 5 5 5 6 6 5 4 4 4 5 5 4 4 3
10 8 11 8 6 3 2 2 2 3 2 2 1 2 6 8 7 7 8 8 9 10 11 11 10 9 9 8 9 9 8 7 7 7 6 6 6 6 8 8 6 5 4 5 5 5 5 4 5
11 8 9 9 6 4 1 1 1 2 1 2 1 3 9 10 8 6 6 6 8 8 8 10 9 8 7 8 9 8 8 7 7 6 7 6 4 5 6 7 7 6 6 6 6 6 5 6 7
8 8 10 8 5 5 4 3 3 2 1 2 2 7 10 9 9 7 6 6 7 6 6 8 8 7 6 5 6 5 5 5 5 4 5 4 3 2 4 8 8 7 6 6 7 7 6 6 4
10 11 10 8 6 5 5 5 5 5 4 2 1 4 7 8 8 7 7 7 6 5 5 6 7 6 5 4 5 3 2 4 4 4 3 2 1 2 3 3 5 5 6 4 5 6 4 3 2
12 11 10 9 7 5 5 5 6 5 5 2 1 2 4 6 7 7 6 7 7 6 6 6 6 5 3 4 3 3 3 3 2 3 3 2 1 1 2 2 2 3 2 2 2 2 2 2 2
11 11 10 9 7 7 8 7 7 6 3 3 3 4 4 5 6 6 6 7 7 6 5 6 5 5 3 3 1 3 2 3 3 2 2 2 1 1 1 1 1 1 1 2 1 1 1 1 2
11 11 11 9 9 9 9 8 7 6 5 5 5 4 4 5 6 7 7 6 6 6 6 6 7 6 5 3 1 2 2 2 3 3 2 2 2 1 1 1 1 0 0 1 1 1 1 1 1
11 13 12 11 11 9 9 9 7 5 6 5 4 4 4 3 2 5 7 7 6 6 5 5 6 6 5 3 2 2 2 3 2 3 3 2 2 2 2 2 1 1 0 1 1 0 0 1 1
13 14 12 11 10 9 9 9 5 5 6 5 5 4 4 2 4 5 6 8 7 6 5 4 5 6 5 3 2 1 1 3 2 2 3 3 2 2 1 1 2 1 1 1 0 0 0 1 0
14 14 13 10 10 8 8 8 6 5 6 5 5 4 3 4 5 6 7 8 7 6 5 3 4 5 5 4 3 2 2 2 2 2 2 2 2 2 1 1 1 1 1 1 0 1 1 0 0
11 11 11 9 7 8 8 7 7 6 7 6 5 4 3 4 6 7 7 8 8 7 5 4 3 4 4 3 3 2 2 2 1 3 2 2 2 2 1 2 2 1 1 1 1 1 0 1 1
13 12 12 9 7 9 8 8 7 6 6 6 5 4 4 4 6 9 8 8 8 7 6 4 3 4 3 3 3 3 2 2 2 3 3 3 2 2 2 1 2 1 1 1 2 1 0 1 1
13 14 12 9 9 8 8 9 8 6 6 4 2 3 3 6 8 8 7 7 7 6 6 5 4 4 3 3 2 2 3 2 2 2 3 3 2 2 2 2 2 2 2 2 1 1 1 1 1
14 13 11 12 11 10 10 10 6 4 3 2 2 2 4 5 8 8 8 7 7 6 5 5 4 4 3 4 2 2 2 2 3 3 2 2 2 2 1 2 2 2 2 2 2 2 2 1 1
12 10 12 14 13 10 10 7 5 4 4 2 2 2 3 4 7 8 7 7 7 7 6 5 4 4 3 3 3 4 3 3 3 2 3 2 2 2 2 2 2 1 1 2 2 2 1 1 1
12 11 13 15 14 12 10 7 5 4 4 4 4 4 4 4 6 7 7 7 6 7 7 6 5 4 4 3 3 3 3 2 3 3 4 3 2 2 2 2 2 1 1 1 1 1 1 1 1
11 12 14 14 10 10 9 8 5 4 4 4 4 4 4 6 7 7 7 7 6 6 7 7 6 5 4 4 3 3 3 3 4 3 3 3 2 2 2 3 2 1 1 1 1 1 1 0 0
11 10 7 7 7 8 7 7 3 3 3 3 4 3 4 6 7 7 7 7 7 7 7 8 7 5 4 4 3 3 3 3 3 3 3 3 2 2 2 3 2 1 1 1 1 2 1 1 1
10 10 8 8 8 6 4 4 2 2 5 4 5 4 5 6 6 8 7 7 7 7 7 8 7 6 5 5 4 3 3 3 2 2 2 2 2 3 3 3 3 2 1 1 1 1 1 1 1
11 11 10 11 11 8 4 3 3 3 5 4 4 4 5 6 7 7 6 7 7 6 6 7 7 6 5 5 4 4 3 3 3 3 2 2 2 2 3 3 3 2 2 1 1 1 1 1 1
12 10 7 7 7 8 5 5 2 3 4 2 3 5 5 6 6 6 6 6 6 6 6 6 6 6 5 5 4 4 3 3 3 3 3 2 2 2 2 2 2 2 2 2 1 1 1 2 1
9 11 9 6 6 6 6 2 1 2 3 3 2 4 6 6 6 6 6 6 6 6 6 6 5 6 5 5 4 4 4 3 3 2 2 2 2 2 2 2 2 2 2 1 1 1 2 2 2
10 10 8 7 7 7 6 2 1 3 3 3 4 6 5 6 6 6 7 7 6 6 5 5 5 5 4 4 5 4 3 3 3 3 2 3 2 2 2 2 1 1 2 1 1 1 1 1 1
Wind_Direction
249 245 236 249 244 251 274 319 64 67 65 56 45 43 51 53 51 82 102 90 102 112 121 124 122 119 117 115 112 108 107 105 105 101 100 102 104 102 104 108 109 109 110 110 110 108 107 103 101
261 257 241 247 259 268 287 17 57 65 59 58 62 62 64 70 79 95 98 101 110 116 125 123 125 123 122 121 117 114 112 110 109 107 106 108 111 110 108 112 115 117 116 115 116 109 105 109 113
261 263 262 246 250 260 315 29 63 81 67 59 68 66 63 69 80 92 102 117 115 117 121 122 129 127 127 126 124 121 119 119 118 117 118 117 117 119 119 119 124 125 123 125 122 119 113 111 114
256 244 238 251 255 263 312 49 79 82 81 63 67 84 80 72 84 105 118 124 121 125 124 127 133 131 131 132 133 131 129 128 128 127 128 125 126 128 130 128 130 131 131 131 127 126 125 132 137
241 258 254 266 274 297 302 17 59 56 62 59 64 90 87 85 100 115 130 131 131 129 125 132 137 136 137 138 140 141 138 137 137 136 138 137 135 137 140 140 137 138 138 138 133 133 142 153 181
252 247 254 257 262 259 299 3 46 41 40 58 55 91 95 101 107 125 138 138 132 124 124 133 142 143 145 147 149 149 147 145 142 141 140 145 151 154 157 152 148 143 148 148 141 139 152 160 179
257 268 269 265 265 291 312 349 28 47 25 22 53 87 107 103 114 131 128 130 128 126 128 139 144 147 151 153 152 151 151 150 150 156 158 163 164 162 166 155 152 154 154 161 162 161 168 170 176
257 274 283 271 265 278 304 327 65 48 51 37 15 103 121 118 124 126 123 128 123 122 130 139 144 146 156 159 157 155 158 158 158 162 167 173 178 177 172 164 158 166 172 172 175 177 185 194 202
254 263 270 276 292 301 271 283 92 118 169 164 192 103 122 128 130 129 129 129 123 127 139 138 142 149 159 155 148 157 163 166 165 169 175 181 195 178 176 157 159 173 187 187 186 191 200 208 213
240 253 260 275 301 311 315 321 315 285 275 272 111 115 128 136 141 149 151 144 134 138 142 137 141 147 156 148 140 163 167 161 182 169 177 195 199 170 158 144 155 169 188 193 193 204 206 215 213
239 250 268 278 297 306 308 316 305 305 282 304 102 135 142 147 155 164 159 140 135 140 137 130 133 134 141 133 148 156 156 157 184 159 166 186 196 152 144 152 160 180 192 200 192 205 215 211 212
250 256 265 278 290 288 287 285 279 268 281 318 47 161 167 163 166 169 152 145 141 143 146 138 132 125 126 121 143 149 153 158 151 140 168 177 182 157 146 157 166 185 181 179 193 192 194 228 229
256 260 262 264 267 266 266 256 264 265 265 252 235 186 173 199 178 154 145 141 138 140 147 135 126 116 109 101 131 134 143 146 131 148 164 170 161 138 121 120 145 182 166 161 182 201 170 222 235
264 267 268 265 263 255 259 259 251 249 244 229 218 203 193 201 176 155 135 130 140 143 146 136 133 123 118 114 113 97 130 124 132 143 143 150 130 125 128 153 148 218 122 113 167 181 182 205 214
267 267 262 254 251 250 259 257 243 238 228 226 224 213 203 208 144 134 135 136 137 131 129 130 136 125 124 137 153 135 135 125 122 128 135 136 133 134 151 146 146 131 112 102 104 116 206 189 187
259 254 251 246 242 237 242 256 250 234 227 221 225 221 193 165 139 134 138 134 129 128 129 145 142 132 135 138 145 110 111 112 125 134 134 139 144 146 157 137 124 132 126 102 124 164 87 86 144
245 246 246 239 231 235 242 260 264 240 228 225 234 227 195 161 141 136 137 125 122 122 128 133 121 136 143 149 143 132 107 108 133 123 127 137 157 158 160 126 113 145 133 130 163 90 96 168 157
255 256 254 247 240 245 247 255 250 242 242 226 227 225 189 167 142 129 129 127 127 127 125 115 119 129 140 144 141 135 120 123 133 118 122 134 146 148 155 140 148 179 134 105 89 80 91 195 218
266 274 277 273 260 258 254 256 254 234 235 236 211 205 191 153 133 127 128 130 129 129 129 137 144 130 143 147 155 160 147 151 144 132 131 138 147 162 160 146 153 171 145 127 116 123 209 198 179
266 269 272 273 256 252 255 253 249 239 224 222 210 178 184 162 132 129 129 130 134 132 137 144 148 143 151 145 156 159 147 156 137 119 130 141 146 161 164 149 164 159 141 135 155 162 209 237 195
257 265 273 275 276 267 260 257 240 242 225 188 194 170 165 158 144 143 146 145 139 136 146 141 140 141 154 152 150 145 137 140 126 135 135 143 151 160 155 151 157 151 162 159 187 182 185 227 269
258 260 266 270 274 263 253 259 236 215 214 198 188 178 174 151 152 148 153 149 144 148 150 136 139 141 148 153 163 164 153 145 134 138 132 135 130 138 138 134 131 147 161 157 199 190 187 206 231
260 265 263 266 268 272 264 259 233 208 206 189 194 179 166 156 151 154 162 149 144 146 147 139 139 142 149 159 156 155 142 137 133 133 131 134 122 119 120 120 118 117 140 160 200 152 167 240 246
263 262 264 264 268 264 267 262 238 205 196 183 176 169 161 150 145 151 151 143 143 149 145 139 141 141 152 157 157 153 140 138 136 141 142 144 133 118 109 106 98 105 134 156 166 171 182 231 208
255 258 262 260 249 250 245 252 236 187 137 137 132 133 149 142 137 135 146 149 144 145 143 139 141 141 144 150 148 143 143 141 138 144 147 145 136 130 122 117 116 123 137 166 152 160 183 190 217
247 249 255 272 275 277 235 239 229 148 108 98 111 148 150 135 130 134 143 142 140 141 138 137 141 144 144 144 140 137 140 146 135 134 139 139 132 133 135 139 148 156 169 169 134 162 165 159 217
244 244 256 270 278 280 255 214 180 129 110 112 138 147 134 133 127 122 121 132 128 128 130 137 143 147 148 146 142 145 151 134 127 134 133 119 120 137 141 152 156 164 165 158 156 158 159 146 201
245 255 257 261 274 276 262 247 214 172 130 123 177 148 127 113 119 121 119 123 119 118 118 120 135 141 141 141 150 142 138 133 136 138 137 130 128 124 140 155 162 159 164 186 173 161 164 174 200
238 241 248 261 268 274 279 284 211 169 150 159 155 126 119 121 118 124 126 130 121 120 125 128 130 137 142 141 135 129 138 136 132 130 133 129 129 136 140 139 134 130 146 164 161 214 180 194 205
245 249 245 252 258 269 276 259 101 117 128 137 136 116 113 112 115 125 129 126 119 119 124 126 131 136 141 135 129 133 135 136 137 133 128 128 128 131 128 118 120 133 131 134 167 242 200 193 200